Cosmos 2221 - Orbit

View from above orbital plane
View from above orbital plane
View from above satellite
View from above satellite

Ground track
Ground track

The orbit data is extracted from the following two-line orbital elements,

1 22236U 92080A   13138.14232628  .00001112  00000-0  12796-3 0  8215
2 22236 082.5115 024.8968 0016377 256.8974 103.0414 14.84835564105806
Epoch (UTC): 18 May 2013 03:24:56
Eccentricity: 0.0016377
inclination: 82.5115°
perigee height: 602 km
apogee height: 625 km
right ascension of ascending node: 24.8968°
argument of perigee: 256.8974°
revolutions per day: 14.84835564
mean anomaly at epoch: 103.0414°
orbit number at epoch: 10580

The dashed part of the orbit path shows where the satellite is in the earth's shadow,  

Developed and maintained by Chris Peat, Heavens-Above GmbH. Please read the updated FAQ before sending e-mail. Imprint. DLR